Weather History for Richmond, KY

Change the Weather History Date:

Sunday, March 31, 2013

  Actual Average (KLOZ) Record (KLOZ)
Temperature  
Mean Temperature 52 °F 52 °F  
Max Temperature 57 °F 64 °F 84 °F (1963)
Min Temperature 48 °F 40 °F 18 °F (1969)
Degree Days  
Heating Degree Days 12 13  
Month to date heating degree days 548  
Since 1 July heating degree days 3825  
Cooling Degree Days 0 0  
Month to date cooling degree days 3  
Year to date cooling degree days 3  
Growing Degree Days 2 (Base 50)    
Moisture  
Dew Point 45 °F    
Average Humidity 82    
Maximum Humidity 100    
Minimum Humidity 62    
Precipitation  
Precipitation 0.00 in 0.13 in 1.15 in (2002)
Month to date precipitation 4.05  
Year to date precipitation 11.30  
Sea Level Pressure  
Sea Level Pressure 29.87 in    
Wind  
Wind Speed 8 mph (SW)    
Max Wind Speed 15 mph    
Max Gust Speed 22 mph    
Visibility 9 miles    
Events      
T = Trace of Precipitation, MM = Missing Value Source: NWS Daily Summary

Daily Weather History Graph

Daily Weather History Graph

Search for Another Location

Airport:

Trip Planner

Search our weather history database for the weather conditions in past years. The results will help you decide how hot, cold, wet, or windy it might be!

Date:

Astronomy

Mar. 31, 2013 Rise Set
Actual Time 7:23 AM EDT 7:59 PM EDT
Civil Twilight 6:57 AM EDT 8:25 PM EDT
Nautical Twilight 6:26 AM EDT 8:57 PM EDT
Astronomical Twilight 5:54 AM EDT 9:28 PM EDT
Moon No Moon Rise 10:15 AM EDT (3/31)
Length of Visible Light 13h 28m
Length of Day
12h 35m
Waning Gibbous, 78% of the Moon is Illuminated
Mar 31
Waning Gibbous
Apr 3
Last Quarter
Apr 10
New
Apr 18
First Quarter
Apr 25
Full

Hourly Weather History & Observations

Time (EDT) Temp. Dew Point Humidity Pressure Visibility Wind Dir Wind Speed Gust Speed Precip Events Conditions
12:15 AM 51.8 °F 39.2 °F 62% 29.95 in 10.0 mi SSE 3.5 mph - N/A   Overcast
12:35 AM 51.8 °F 39.2 °F 62% 29.95 in 10.0 mi SSE 4.6 mph - N/A   Overcast
12:55 AM 51.8 °F 39.2 °F 62% 29.94 in 10.0 mi South 6.9 mph - N/A   Overcast
1:15 AM 51.8 °F 41.0 °F 67% 29.93 in 10.0 mi South 6.9 mph - N/A   Overcast
1:35 AM 51.8 °F 42.8 °F 71% 29.93 in 10.0 mi SSW 6.9 mph - N/A   Overcast
1:55 AM 50.0 °F 42.8 °F 76% 29.92 in 10.0 mi South 5.8 mph - N/A   Overcast
2:15 AM 50.0 °F 44.6 °F 82% 29.90 in 10.0 mi South 5.8 mph - N/A   Overcast
2:35 AM 48.2 °F 46.4 °F 93% 29.90 in 10.0 mi South 4.6 mph - N/A   Overcast
2:55 AM 48.2 °F 46.4 °F 93% 29.90 in 10.0 mi SSW 5.8 mph - N/A   Overcast
3:15 AM 48.2 °F 46.4 °F 93% 29.88 in 7.0 mi SE 4.6 mph - N/A   Overcast
3:35 AM 50.0 °F 46.4 °F 87% 29.87 in 5.0 mi SSE 6.9 mph - N/A   Overcast
3:55 AM 50.0 °F 46.4 °F 87% 29.86 in 5.0 mi SSE 4.6 mph - N/A   Overcast
4:15 AM 48.2 °F 46.4 °F 93% 29.85 in 7.0 mi SSE 4.6 mph - N/A   Overcast
4:35 AM 48.2 °F 48.2 °F 100% 29.84 in 5.0 mi SSE 3.5 mph - N/A   Overcast
5:15 AM 50.0 °F 48.2 °F 94% 29.82 in 7.0 mi SSE 5.8 mph - N/A   Overcast
5:35 AM 50.0 °F 48.2 °F 94% 29.81 in 5.0 mi South 4.6 mph - N/A   Overcast
5:55 AM 50.0 °F 48.2 °F 94% 29.81 in 10.0 mi South 6.9 mph - N/A   Overcast
6:15 AM 50.0 °F 48.2 °F 94% 29.81 in 4.0 mi SSW 8.1 mph - N/A   Overcast
6:35 AM 50.0 °F 48.2 °F 94% 29.81 in 7.0 mi SSW 8.1 mph - N/A   Overcast
6:55 AM 50.0 °F 48.2 °F 94% 29.81 in 7.0 mi SW 9.2 mph - N/A   Overcast
7:15 AM 50.0 °F 50.0 °F 100% 29.82 in 5.0 mi SW 9.2 mph - N/A   Overcast
7:35 AM 51.8 °F 50.0 °F 94% 29.81 in 10.0 mi WSW 8.1 mph - N/A   Overcast
7:55 AM 51.8 °F 50.0 °F 94% 29.82 in 10.0 mi WSW 9.2 mph - N/A   Overcast
8:15 AM 51.8 °F 48.2 °F 88% 29.83 in 10.0 mi West 8.1 mph - N/A   Overcast
8:35 AM 51.8 °F 48.2 °F 88% 29.84 in 10.0 mi West 11.5 mph 17.3 mph N/A   Overcast
8:55 AM 50.0 °F 48.2 °F 94% 29.84 in 10.0 mi West 12.7 mph 18.4 mph N/A   Overcast
9:15 AM 50.0 °F 48.2 °F 94% 29.85 in 10.0 mi West 15.0 mph 19.6 mph N/A   Overcast
9:35 AM 50.0 °F 48.2 °F 94% 29.85 in 10.0 mi WSW 12.7 mph 18.4 mph N/A   Overcast
10:15 AM 50.0 °F 48.2 °F 94% 29.85 in 10.0 mi West 10.4 mph - N/A   Overcast
10:35 AM 50.0 °F 48.2 °F 94% 29.86 in 10.0 mi WSW 12.7 mph - N/A   Overcast
10:55 AM 50.0 °F 46.4 °F 87% 29.86 in 10.0 mi WSW 13.8 mph 17.3 mph N/A   Overcast
11:15 AM 50.0 °F 46.4 °F 87% 29.87 in 10.0 mi West 15.0 mph 21.9 mph N/A   Overcast
11:35 AM 50.0 °F 46.4 °F 87% 29.88 in 10.0 mi West 15.0 mph 20.7 mph N/A   Overcast
11:55 AM 50.0 °F 46.4 °F 87% 29.88 in 10.0 mi West 11.5 mph 20.7 mph N/A   Overcast
12:15 PM 50.0 °F 46.4 °F 87% 29.89 in 10.0 mi West 13.8 mph - N/A   Overcast
12:35 PM 50.0 °F 46.4 °F 87% 29.89 in 10.0 mi West 15.0 mph 20.7 mph N/A   Overcast
12:55 PM 50.0 °F 46.4 °F 87% 29.89 in 10.0 mi West 11.5 mph - N/A   Overcast
1:15 PM 50.0 °F 46.4 °F 87% 29.89 in 10.0 mi West 11.5 mph - N/A   Overcast
1:35 PM 50.0 °F 46.4 °F 87% 29.90 in 10.0 mi West 9.2 mph - N/A   Overcast
1:55 PM 50.0 °F 46.4 °F 87% 29.90 in 10.0 mi West 10.4 mph - N/A   Overcast
2:15 PM 50.0 °F 46.4 °F 87% 29.90 in 10.0 mi WNW 9.2 mph - N/A   Overcast
2:35 PM 50.0 °F 46.4 °F 87% 29.90 in 10.0 mi West 10.4 mph - N/A   Overcast
3:15 PM 51.8 °F 44.6 °F 76% 29.89 in 10.0 mi West 12.7 mph - N/A   Overcast
3:35 PM 53.6 °F 44.6 °F 72% 29.87 in 10.0 mi West 9.2 mph - N/A   Mostly Cloudy
4:15 PM 55.4 °F 46.4 °F 72% 29.85 in 10.0 mi WSW 5.8 mph - N/A   Overcast
4:35 PM 55.4 °F 44.6 °F 67% 29.85 in 10.0 mi West 8.1 mph - N/A   Mostly Cloudy
4:55 PM 55.4 °F 44.6 °F 67% 29.84 in 10.0 mi WSW 9.2 mph - N/A   Mostly Cloudy
5:15 PM 55.4 °F 44.6 °F 67% 29.84 in 10.0 mi WSW 9.2 mph - N/A   Mostly Cloudy
5:35 PM 55.4 °F 44.6 °F 67% 29.84 in 10.0 mi WSW 10.4 mph - N/A   Mostly Cloudy
5:55 PM 55.4 °F 44.6 °F 67% 29.84 in 10.0 mi WSW 9.2 mph - N/A   Overcast
6:15 PM 55.4 °F 44.6 °F 67% 29.84 in 10.0 mi WSW 8.1 mph - N/A   Overcast
6:35 PM 55.4 °F 44.6 °F 67% 29.85 in 10.0 mi WSW 9.2 mph - N/A   Scattered Clouds
6:55 PM 57.2 °F 44.6 °F 63% 29.85 in 10.0 mi WSW 9.2 mph - N/A   Scattered Clouds
7:35 PM 53.6 °F 44.6 °F 72% 29.86 in 10.0 mi WSW 9.2 mph - N/A   Scattered Clouds
7:55 PM 53.6 °F 44.6 °F 72% 29.86 in 10.0 mi WSW 6.9 mph - N/A   Scattered Clouds
8:15 PM 51.8 °F 44.6 °F 76% 29.86 in 10.0 mi WSW 5.8 mph - N/A   Clear
8:35 PM 51.8 °F 44.6 °F 76% 29.86 in 10.0 mi WSW 6.9 mph - N/A   Clear
8:55 PM 51.8 °F 42.8 °F 71% 29.86 in 10.0 mi SW 4.6 mph - N/A   Clear
9:15 PM 50.0 °F 42.8 °F 76% 29.87 in 10.0 mi SW 6.9 mph - N/A   Clear
9:35 PM 50.0 °F 42.8 °F 76% 29.86 in 10.0 mi SSW 6.9 mph - N/A   Clear
9:55 PM 50.0 °F 42.8 °F 76% 29.86 in 10.0 mi SSW 8.1 mph - N/A   Clear
10:15 PM 50.0 °F 42.8 °F 76% 29.86 in 10.0 mi SSW 6.9 mph - N/A   Clear
10:35 PM 48.2 °F 42.8 °F 82% 29.88 in 10.0 mi SSW 8.1 mph - N/A   Clear
10:55 PM 48.2 °F 42.8 °F 82% 29.88 in 10.0 mi SSW 6.9 mph - N/A   Clear
11:15 PM 48.2 °F 42.8 °F 82% 29.88 in 10.0 mi SSW 8.1 mph - N/A   Clear
11:35 PM 48.2 °F 42.8 °F 82% 29.86 in 10.0 mi SSW 8.1 mph - N/A   Clear
11:55 PM 48.2 °F 42.8 °F 82% 29.86 in 10.0 mi SSW 6.9 mph - N/A   Clear